Canadian, TX

8:37 PM CST on December 16, 2017 (GMT -0600)
Hemphill County

Weather History for KHHF - November, 2011

Change the Weather History Date:

Tuesday, November 29, 2011

  Actual Average (KPPA) Record (KPPA)
Temperature  
Mean Temperature 45 °F -  
Max Temperature 51 °F 51 °F 81 °F (2014)
Min Temperature 39 °F 25 °F 5 °F (1976)
Degree Days  
Heating Degree Days 20    
Moisture  
Dew Point 28 °F    
Average Humidity 55    
Maximum Humidity 75    
Minimum Humidity 32    
Precipitation  
Precipitation 0.00 in - - ()
Sea Level Pressure  
Sea Level Pressure 30.29 in    
Wind  
Wind Speed 8 mph (North)    
Max Wind Speed 13 mph    
Max Gust Speed 20 mph    
Visibility 10 miles    
Events      
Averages and records for this station are not official NWS values.
T = Trace of Precipitation, MM = Missing Value Source: NWS Daily Summary

Daily Weather History Graph

Daily Weather History Graph

Search for Another Location

Airport or City:

Trip Planner

Search our weather history database for the weather conditions in past years. The results will help you decide how hot, cold, wet, or windy it might be!

Date:

Astronomy

Nov. 29, 2011 Rise Set
Actual Time 7:31 AM CST 5:28 PM CST
Civil Twilight 7:03 AM CST 5:56 PM CST
Nautical Twilight 6:31 AM CST 6:27 PM CST
Astronomical Twilight 6:00 AM CST 6:58 PM CST
Moon 11:22 AM CST (11/29) 10:19 PM CST (11/29)
Length of Visible Light 10h 52m
Length of Day
9h 56m
Waxing Crescent, 24% of the Moon is Illuminated
Nov 29
Waxing Crescent
Dec 2
First Quarter
Dec 10
Full
Dec 17
Last Quarter
Dec 24
New

Hourly Weather History & Observations

Time (CST) Temp. Windchill Dew Point Humidity Pressure Visibility Wind Dir Wind Speed Gust Speed Precip Events Conditions
12:15 AM 44.6 °F 39.7 °F 32.0 °F 61% 30.16 in 10.0 mi North 9.2 mph - N/A   Clear
12:35 AM 44.6 °F 39.7 °F 30.2 °F 57% 30.18 in 10.0 mi North 9.2 mph - N/A   Clear
1:15 AM 44.6 °F 41.4 °F 28.4 °F 53% 30.19 in 10.0 mi North 5.8 mph - N/A   Clear
1:35 AM 42.8 °F 40.1 °F 28.4 °F 57% 30.20 in 10.0 mi North 4.6 mph - N/A   Clear
1:55 AM 41.0 °F 38.0 °F 28.4 °F 61% 30.21 in 10.0 mi North 4.6 mph - N/A   Clear
2:15 AM 41.0 °F 36.4 °F 28.4 °F 61% 30.21 in 10.0 mi NNW 6.9 mph - N/A   Clear
2:35 AM 41.0 °F 35.8 °F 28.4 °F 61% 30.22 in 10.0 mi North 8.1 mph - N/A   Clear
2:55 AM 41.0 °F 34.7 °F 28.4 °F 61% 30.23 in 10.0 mi North 10.4 mph - N/A   Clear
3:15 AM 42.8 °F 37.0 °F 28.4 °F 57% 30.24 in 10.0 mi North 10.4 mph 19.6 mph N/A   Clear
3:35 AM 42.8 °F 37.0 °F 28.4 °F 57% 30.25 in 10.0 mi North 10.4 mph 16.1 mph N/A   Clear
3:55 AM 41.0 °F 35.2 °F 28.4 °F 61% 30.26 in 10.0 mi NNW 9.2 mph - N/A   Clear
4:15 AM 41.0 °F 34.7 °F 30.2 °F 65% 30.25 in 10.0 mi North 10.4 mph - N/A   Clear
4:35 AM 41.0 °F 34.3 °F 30.2 °F 65% 30.26 in 10.0 mi North 11.5 mph 17.3 mph N/A   Clear
4:55 AM 41.0 °F 35.2 °F 30.2 °F 65% 30.27 in 10.0 mi North 9.2 mph - N/A   Clear
5:15 AM 41.0 °F 34.3 °F 30.2 °F 65% 30.27 in 10.0 mi NNE 11.5 mph 19.6 mph N/A   Clear
5:35 AM 41.0 °F 37.1 °F 30.2 °F 65% 30.28 in 10.0 mi North 5.8 mph - N/A   Clear
5:55 AM 41.0 °F 37.1 °F 30.2 °F 65% 30.29 in 10.0 mi North 5.8 mph - N/A   Clear
6:15 AM 41.0 °F 34.7 °F 30.2 °F 65% 30.29 in 10.0 mi North 10.4 mph 17.3 mph N/A   Clear
6:35 AM 41.0 °F 35.2 °F 30.2 °F 65% 30.30 in 10.0 mi NNE 9.2 mph - N/A   Clear
6:55 AM 41.0 °F 35.2 °F 30.2 °F 65% 30.31 in 10.0 mi North 9.2 mph - N/A   Clear
7:35 AM 39.2 °F 35.0 °F 32.0 °F 75% 30.32 in 10.0 mi North 5.8 mph - N/A   Clear
7:55 AM 39.2 °F 33.6 °F 32.0 °F 75% 30.33 in 10.0 mi North 8.1 mph - N/A   Clear
8:35 AM 41.0 °F 39.0 °F 32.0 °F 70% 30.34 in 10.0 mi North 3.5 mph - N/A   Clear
8:55 AM 41.0 °F 35.8 °F 32.0 °F 70% 30.34 in 10.0 mi North 8.1 mph - N/A   Clear
9:15 AM 41.0 °F 35.8 °F 32.0 °F 70% 30.34 in 10.0 mi NE 8.1 mph - N/A   Clear
9:35 AM 41.0 °F 35.2 °F 32.0 °F 70% 30.35 in 10.0 mi NNE 9.2 mph - N/A   Clear
9:55 AM 42.8 °F 37.0 °F 32.0 °F 66% 30.36 in 10.0 mi NNE 10.4 mph - N/A   Clear
10:15 AM 42.8 °F 36.6 °F 32.0 °F 66% 30.37 in 10.0 mi NNE 11.5 mph 17.3 mph N/A   Clear
10:35 AM 44.6 °F 38.4 °F 32.0 °F 61% 30.36 in 10.0 mi NNE 12.7 mph - N/A   Clear
10:55 AM 44.6 °F 39.7 °F 32.0 °F 61% 30.36 in 10.0 mi NNE 9.2 mph - N/A   Clear
11:15 AM 44.6 °F 39.7 °F 32.0 °F 61% 30.36 in 10.0 mi North 9.2 mph 16.1 mph N/A   Clear
11:35 AM 46.4 °F 43.5 °F 32.0 °F 57% 30.35 in 10.0 mi NNE 5.8 mph - N/A   Clear
11:55 AM 46.4 °F 42.9 °F 32.0 °F 57% 30.35 in 10.0 mi North 6.9 mph - N/A   Clear
12:15 PM 46.4 °F 41.5 °F 32.0 °F 57% 30.35 in 10.0 mi North 10.4 mph - N/A   Clear
12:35 PM 46.4 °F 43.5 °F 30.2 °F 53% 30.34 in 10.0 mi NNE 5.8 mph - N/A   Clear
12:55 PM 50.0 °F - 28.4 °F 43% 30.33 in 10.0 mi NNE 5.8 mph - N/A   Clear
1:15 PM 50.0 °F - 26.6 °F 40% 30.31 in 10.0 mi North 4.6 mph - N/A   Clear
1:35 PM 50.0 °F - 26.6 °F 40% 30.30 in 10.0 mi NE 8.1 mph - N/A   Clear
1:55 PM 51.8 °F - 23.0 °F 33% 30.30 in 10.0 mi NNE 8.1 mph - N/A   Clear
2:15 PM 51.8 °F - 23.0 °F 33% 30.29 in - NNE 9.2 mph - N/A   Unknown
2:35 PM 50.0 °F - 23.0 °F 35% 30.30 in 10.0 mi North 8.1 mph - N/A   Mostly Cloudy
2:55 PM 50.0 °F - 23.0 °F 35% 30.31 in 10.0 mi North 11.5 mph - N/A   Overcast
3:15 PM 50.0 °F - 23.0 °F 35% 30.30 in 10.0 mi NNE 6.9 mph - N/A   Mostly Cloudy
3:35 PM 50.0 °F - 21.2 °F 32% 30.29 in 10.0 mi North 8.1 mph - N/A   Scattered Clouds
3:55 PM 50.0 °F - 24.8 °F 37% 30.31 in 10.0 mi NNW 4.6 mph - N/A   Scattered Clouds
4:15 PM 48.2 °F - 23.0 °F 37% 30.30 in 10.0 mi North 6.9 mph - N/A   Scattered Clouds
4:35 PM 50.0 °F - 23.0 °F 35% 30.30 in 10.0 mi Calm Calm - N/A   Scattered Clouds
4:55 PM 48.2 °F - 23.0 °F 37% 30.28 in 10.0 mi Calm Calm - N/A   Clear
5:15 PM 46.4 °F - 21.2 °F 37% 30.28 in 10.0 mi Calm Calm - N/A   Clear
5:35 PM 44.6 °F - 23.0 °F 43% 30.28 in 10.0 mi Calm Calm - N/A   Clear
5:55 PM 44.6 °F - 23.0 °F 43% 30.28 in 10.0 mi Calm Calm - N/A   Clear
6:15 PM 41.0 °F - 23.0 °F 49% 30.30 in 10.0 mi Calm Calm - N/A   Clear
6:35 PM 42.8 °F 40.1 °F 23.0 °F 46% 30.30 in 10.0 mi NNE 4.6 mph - N/A   Clear
6:55 PM 37.4 °F - 23.0 °F 56% 30.30 in 10.0 mi Calm Calm - N/A   Clear
7:15 PM 35.6 °F - 23.0 °F 60% 30.30 in 10.0 mi Calm Calm - N/A   Clear
7:35 PM 33.8 °F 30.8 °F 23.0 °F 65% 30.29 in 10.0 mi South 3.5 mph - N/A   Clear
7:55 PM 32.0 °F 28.7 °F 23.0 °F 69% 30.29 in 10.0 mi WSW 3.5 mph - N/A   Clear
8:15 PM 32.0 °F 27.5 °F 24.8 °F 75% 30.29 in 10.0 mi SSW 4.6 mph - N/A   Clear
8:35 PM 30.2 °F - 23.0 °F 75% 30.29 in 10.0 mi Calm Calm - N/A   Clear
8:55 PM 32.0 °F - 23.0 °F 69% 30.29 in 10.0 mi Calm Calm - N/A   Clear
9:15 PM 30.2 °F - 23.0 °F 75% 30.28 in 10.0 mi Calm Calm - N/A   Clear
9:55 PM 30.2 °F 25.4 °F 23.0 °F 75% 30.28 in 10.0 mi SW 4.6 mph - N/A   Clear
10:15 PM 30.2 °F 26.7 °F 23.0 °F 75% 30.28 in 10.0 mi SW 3.5 mph - N/A   Clear
10:35 PM 30.2 °F 26.7 °F 24.8 °F 80% 30.28 in 10.0 mi SSW 3.5 mph - N/A   Clear
10:55 PM 30.2 °F - 23.0 °F 75% 30.27 in 10.0 mi Calm Calm - N/A   Clear
11:15 PM 26.6 °F 22.6 °F 21.2 °F 80% 30.27 in 10.0 mi SSW 3.5 mph - N/A   Clear
11:35 PM 28.4 °F 24.6 °F 23.0 °F 80% 30.27 in 10.0 mi SW 3.5 mph - N/A   Clear
11:55 PM 28.4 °F 24.6 °F 23.0 °F 80% 30.27 in 10.0 mi SW 3.5 mph - N/A   Clear